Preview of NWS' New Version of Forecast
This preview is not operational and should not be used for support decisions.

Regional Weather Roundup (RWR)

Issued by National Weather Service (NWS)

                            
000
ASUS42 KTBW 171915
RWRFL 
FLORIDA REGIONAL WEATHER ROUNDUP
NATIONAL WEATHER SERVICE TAMPA BAY RUSKIN FL
300 PM EDT MON JUN 17 2019

NOTE: "FAIR" INDICATES FEW OR NO CLOUDS BELOW 12,000 FEET WITH NO
SIGNIFICANT WEATHER AND/OR OBSTRUCTIONS TO VISIBILITY.

FLZ001>010-012>015-112-114-115-172000-
PANHANDLE FLORIDA
  
CITY           SKY/WX    TMP DP  RH WIND       PRES   REMARKS
PENSACOLA      FAIR      88  76  67 SE15      29.99F HX  99           
PENSACOLA NAS  PTSUNNY   88  76  67 S15       29.98F HX  99           
MILTON NAS     PTSUNNY   89  74  60 S14       29.98F HX  98           
CRESTVIEW      FAIR      89  70  53 VRB7      30.00F                  
DUKE FIELD     PTSUNNY   90  68  47 S12G20    29.98F                  
VALPARAISO     PTSUNNY   89  73  58 S14       29.99F HX  97           
MARY ESTHER    MOSUNNY   88  76  67 SE12G18   29.98F HX  98           
TRI COUNTY     FAIR      93  71  48 VRB3      29.99F HX 100           
PANAMA CITY    PTSUNNY   89  73  59 S15       29.99S HX  97           
TYNDALL AFB    PTSUNNY   84  75  74 S14       30.00  THUNDER          
APALACHICOLA   FAIR      83  74  74 S6        30.01F                  

STATION/POSITION SKY/WX   TEMP    WIND        PRES    WAVE   SWELL
                          AIR SEA DIR/SP/G            HT/PER HT/PER
                          (F)     (DEG/KT/KT) (MB)    (FT/S) (FT/S)
30.1N   87.6W                                   N/A     2/ 4
29.2N   88.2W                     160/ 10/ 14 1015.8F   2/ 5   2/ 5
PANAMA CITY BEAC           83 85  170/ 12/ 13 1016.5F
TOWER C          NOT AVBL

$$
FLZ011-016>038-118-127-128-134-139-239-172000-
NORTH FLORIDA
  
CITY           SKY/WX    TMP DP  RH WIND       PRES   REMARKS
MARIANNA       FAIR      82  73  74 SE15G25   30.01R                  
TALLAHASSEE    PTSUNNY   84  75  74 SE8       30.03F                  
PERRY          PTSUNNY   88  73  60 SW3       30.02F HX  95           
LIVE OAK       MOSUNNY   90  70  51 SW5       30.01F HX  95           
CROSS CITY     FAIR      88  73  61 S10       30.01F HX  96           
LAKE CITY      CLOUDY    86  70  58 CALM      30.02F                  
GAINESVILLE    TSTM      76  72  87 SW8       30.09R FOG              
PALATKA        FAIR      77  73  88 NE7       30.06F                  
MAYPORT NAS    PTSUNNY   85  72  65 SE9       30.07F                  
JACKSONVILLE   PTSUNNY   84  70  62 SE9       30.05F                  
JAX NAS        PTSUNNY   83  72  69 E13       30.06F                  
JAX CECIL      PTSUNNY   86  73  66 VRB5      30.05F                  
FERNANDINA BEA FAIR      84  74  72 SE12      30.07F                  
ST AUGUSTINE   FAIR      80  72  76 SE14      30.07F                  
PALM COAST     SUNNY     88  72  58 SE14G23   30.05F                  

STATION/POSITION SKY/WX   TEMP    WIND        PRES    WAVE   SWELL
                          AIR SEA DIR/SP/G            HT/PER HT/PER
                          (F)     (DEG/KT/KT) (MB)    (FT/S) (FT/S)
SHELL POINT      NOT AVBL
KEATON BEACH               82     180/ 10/ 11 1016.7F
CEDAR KEY                                       N/A
FERNANDINA                 87 84  130/  7/ 12 1019.1F
30.7N   81.3W                 83                N/A     2/ 8
MAYPORT                    81 83   50/  1/  2 1018.8F
31.4N   80.9W              81 84  150/ 10/ 10 1019.1F   1/ 8   2/ 8
ST AUGUSTINE               79 83  120/ 14/ 16 1018.3F

$$
FLZ040-043>046-052-053-057-058-063-144-172000-
INTERIOR CENTRAL FLORIDA
  
CITY           SKY/WX    TMP DP  RH WIND       PRES   REMARKS
OCALA          PTSUNNY   82  73  74 VRB6      30.05S                  
LEESBURG       FAIR      81  71  71 SW5       30.04S                  
SANFORD        PTSUNNY   88  72  58 SE14      30.02F                  
ORLANDO EXEC   FAIR      88  72  58 SE15      30.02F                  
ORLANDO INTL   PTSUNNY   84  72  67 SE10      30.03S THUNDER          
KISSIMMEE      TSTM      78  74  87 N7        30.03F                  
WINTER HAVEN   PTSUNNY   83  69  62 E8        30.02F                  
LAKELAND       PTSUNNY   88  73  62 SE9       30.02F HX  96           
BARTOW         PTSUNNY   81  75  83 E6        30.01F                  
SEBRING        TSTM      82  75  80 S22G29    30.03S                  
OKEECHOBEE     FAIR      82  73  74 S13       30.02S                  

$$
FLZ041-047-054-059-064-141-147-172000-
EAST CENTRAL FLORIDA
  
CITY           SKY/WX    TMP DP  RH WIND       PRES   REMARKS
ORMOND BEACH   MOSUNNY   84  70  61 SE13G18   30.05                   
DAYTONA BEACH  FAIR      84  73  69 E13G22    30.04F                  
DELAND         FAIR      88  70  55 SE14      30.02F                  
NEW SMYRNA BEA MOSUNNY   86  72  62 SE20G25   30.06F                  
JFK SPACE CTR  PTSUNNY   84  66  54 SE10      30.04F                  
TITUSVILLE     MOSUNNY   88  73  62 SE14G22   30.06F HX  96           
CAPE CANAVERAL FAIR      84 N/A N/A SE17      30.04F                  
PATRICK AFB    FAIR      84  78  82 SE16      30.05F                  
MELBOURNE      PTSUNNY   83  73  72 SE20G30   30.04F                  
VERO BEACH     PTSUNNY   80  76  87 E13       30.05F                  
FT PIERCE      FAIR      83  73  72 SE16      30.04F                  
STUART         PTSUNNY   84  73  70 SE12G18   30.05F                  

STATION/POSITION SKY/WX   TEMP    WIND        PRES    WAVE   SWELL
                          AIR SEA DIR/SP/G            HT/PER HT/PER
                          (F)     (DEG/KT/KT) (MB)    (FT/S) (FT/S)
28.5N   80.2W              80 81  150/ 17/ 21 1017.9F   3/ 5
28.9N   78.5W              76 83  170/ 12/ 14   N/A
TRIDENT PIER               82 79  120/  9/ 12 1019.3F
28.4N   80.5W                 78                N/A     3/ 5
27.5N   80.2W                 79                N/A     4/ 5

$$
FLZ050-056-061-142-242-148-248-149-249-151-251-155-255-
160-260-172000-
WEST CENTRAL FLORIDA
  
CITY           SKY/WX    TMP DP  RH WIND       PRES   REMARKS
CRYSTAL RIVER  CLOUDY    79  73  83 W10G16    30.03R VSB 1            
BROOKSVILLE    PTSUNNY   88  75  65 E9        30.00F HX  97           
CLEARWATER AIR PTSUNNY   81  73  78 CALM      30.01F                  
ST PETE CLEARW CLOUDY    84  72  67 S5        30.00F                  
TAMPA INTL     PTSUNNY   84  74  71 VRB3      30.01F                  
TAMPA EXEC     PTSUNNY   88  73  62 SW9       30.01F HX  96           
PLANT CITY     FAIR      90  72  55 S8        30.03F HX  96           
MACDILL AFB    DRIZZLE   84  73  70 S3        30.01S                  
PETER O KNIGHT PTSUNNY   86  75  70 S3        30.01F HX  95           
ST PETERSBURG  FAIR      82  75  79 S6        30.03F                  
SARASOTA       FAIR      82  72  71 S13       30.00S                  
VENICE         CLOUDY    82  75  78 S8        30.03S                  

STATION/POSITION SKY/WX   TEMP    WIND        PRES    WAVE   SWELL
                          AIR SEA DIR/SP/G            HT/PER HT/PER
                          (F)     (DEG/KT/KT) (MB)    (FT/S) (FT/S)
27.3N   84.2W                 83                N/A     3/ 6
CLEARWATER BEACH           83 85   CALM  /  4 1016.4F
MIDDLE TAMPA BAY           84     180/  6/ 10 1016.3F
VENICE                     80 85  180/ 11/ 12 1016.3F

$$
FLZ066-069-070-075>078-162-262-165-265-172000-
SOUTHWEST FLORIDA AND KEYS
  
CITY           SKY/WX    TMP DP  RH WIND       PRES   REMARKS
PUNTA GORDA    FAIR      83  73  72 SW9       30.03F                  
FT MYERS       PTSUNNY   85  75  72 SW12      30.02S                  
SOUTHWEST INTL PTSUNNY   85  73  67 SW18G26   30.03S                  
NAPLES         TSTM      78  75  90 NW9       30.03S FOG              
IMMOKALEE      FAIR      84  73  70 S7        30.02S                  
MARATHON       FAIR      84  77  79 S3        30.03F                  
KEY WEST NAS   LGT RAIN  79  75  87 S7        30.03F                  
KEY WEST INTL  LGT RAIN  80  70  71 S8        30.03F                  

STATION/POSITION SKY/WX   TEMP    WIND        PRES    WAVE   SWELL
                          AIR SEA DIR/SP/G            HT/PER HT/PER
                          (F)     (DEG/KT/KT) (MB)    (FT/S) (FT/S)
NAPLES                     79 85              1017.0R
DRY TORTUGAS               83     190/ 11/ 12 1016.4F
SAND KEY                   79                 1016.9F
SOMBRERO KEY               79                 1016.5F

$$
FLZ067-068-071>074-168-172>174-172000-
SOUTHEAST FLORIDA 
  
CITY           SKY/WX    TMP DP  RH WIND       PRES   REMARKS
W PALM BEACH   TSTM      76  73  91 SE17G24   30.08R FOG              
FT LAUDER-EXEC CLOUDY    77  72  84 SE3       30.06F THUNDER          
FT LAUDERDALE  LGT RAIN  77  74  90 CALM      30.05F                  
POMPANO BEACH  LGT RAIN  78  72  81 E7        30.06F                  
PEMBROKE PINES PTSUNNY   79  74  84 CALM      30.07F                  
OPA LOCKA      LGT RAIN  80  76  87 E5        30.06F                  
MIAMI          CLOUDY    84  76  76 E3        30.05F                  
WEST KENDALL   PTSUNNY   85  75  72 SW10      30.05S                  
HOMESTEAD      CLOUDY    83  74  74 S12       30.04S                  

STATION/POSITION SKY/WX   TEMP    WIND        PRES    WAVE   SWELL
                          AIR SEA DIR/SP/G            HT/PER HT/PER
                          (F)     (DEG/KT/KT) (MB)    (FT/S) (FT/S)
VIRGINIA KEY               83 83  170/  6/  9 1017.2F
LAKE WORTH                 75 83  170/ 14/ 24 1019.6R
SETTLEMENT POINT           75     130/ 10/ 13 1019.5S

$$